Tracking 28081 objects as of 27-Sep-2023
HD Live streaming from Space Station
objects crossing your sky now

STARLINK-4278

Track STARLINK-4278 now!
10-day predictions
STARLINK-4278 is classified as:


NORAD ID: 53182
Int'l Code: 2022-083BC
Perigee: 545.9 km
Apogee: 547.9 km
Inclination: 53.2 °
Period: 95.4 minutes
Semi major axis: 6917 km
RCS: Unknown
Launch date: July 17, 2022
Source: United States (US)
Launch site: AIR FORCE EASTERN TEST RANGE (AFETR)
Your satellite tracking list
Your tracking list is empty




NASA's NSSDC Master Catalog

Two Line Element Set (TLE):
1 53182U 22083BC  23270.01555144 -.00002378  00000-0 -13137-3 0  9993
2 53182  53.2159 195.4566 0001412 109.4471 250.6674 15.08835495 67276
Source of the keplerian elements: AFSPC